Weather History for Ashtabula, OH

Change the Weather History Date:

Saturday, August 3, 2013

  Actual Average (KYNG) Record (KYNG)
Temperature  
Mean Temperature 66 °F 70 °F  
Max Temperature 75 °F 81 °F 97 °F (1930)
Min Temperature 57 °F 60 °F 48 °F (1976)
Degree Days  
Heating Degree Days 0 0  
Month to date heating degree days 0  
Since 1 June heating degree days 82  
Since 1 July heating degree days 13  
Cooling Degree Days 1 6  
Month to date cooling degree days 18  
Year to date cooling degree days 352  
Since 1 June cooling degree days 313  
Growing Degree Days 16 (Base 50)    
Moisture  
Dew Point 59 °F    
Average Humidity 75    
Maximum Humidity 94    
Minimum Humidity 45    
Precipitation  
Precipitation 0.00 in 0.12 in 1.77 in (1974)
Month to date precipitation 0.35  
Year to date precipitation 23.33  
Snow  
Snow 0.00 in 0.00 in - ()
Month to date snowfall 0.0  
Since 1 June snowfall 0.0  
Since 1 July snowfall 0.0  
Snow Depth -    
Sea Level Pressure  
Sea Level Pressure 29.97 in    
Wind  
Wind Speed 4 mph (WNW)    
Max Wind Speed 12 mph    
Max Gust Speed 18 mph    
Visibility 8 miles    
Events      
T = Trace of Precipitation, MM = Missing Value Source: NWS Daily Summary

Daily Weather History Graph

Daily Weather History Graph

Search for Another Location

Airport:

Trip Planner

Search our weather history database for the weather conditions in past years. The results will help you decide how hot, cold, wet, or windy it might be!

Date:

Astronomy

Aug. 03, 2013 Rise Set
Actual Time 6:19 AM EDT 8:38 PM EDT
Civil Twilight 5:47 AM EDT 9:09 PM EDT
Nautical Twilight 5:09 AM EDT 9:47 PM EDT
Astronomical Twilight 4:26 AM EDT 10:30 PM EDT
Moon 3:26 AM EDT (8/3) 6:19 PM EDT (8/3)
Length of Visible Light 15h 21m
Length of Day
14h 19m
Waning Crescent, 9% of the Moon is Illuminated
Aug 3
Waning Crescent
Aug 6
New
Aug 14
First Quarter
Aug 20
Full
Aug 28
Last Quarter

Hourly Weather History & Observations

Time (EDT) Temp. Dew Point Humidity Pressure Visibility Wind Dir Wind Speed Gust Speed Precip Events Conditions
12:53 AM 66.9 °F 62.1 °F 84% 29.91 in 10.0 mi WSW 3.5 mph - N/A   Mostly Cloudy
1:36 AM 66.2 °F 62.6 °F 88% 29.93 in 10.0 mi SW 5.8 mph - N/A   Mostly Cloudy
1:53 AM 66.0 °F 62.1 °F 87% 29.91 in 9.0 mi Calm Calm - N/A   Scattered Clouds
2:53 AM 66.9 °F 63.0 °F 87% 29.90 in 9.0 mi WNW 4.6 mph - N/A   Clear
3:53 AM 66.9 °F 63.0 °F 87% 29.92 in 8.0 mi WSW 4.6 mph - N/A   Scattered Clouds
4:25 AM 66.2 °F 62.6 °F 88% 29.93 in 7.0 mi West 3.5 mph - N/A   Mostly Cloudy
4:33 AM 66.2 °F 62.6 °F 88% 29.93 in 7.0 mi Calm Calm - N/A   Scattered Clouds
4:53 AM 64.9 °F 62.1 °F 90% 29.92 in 6.0 mi Calm Calm - N/A   Scattered Clouds
5:53 AM 66.0 °F 61.0 °F 84% 29.93 in 8.0 mi West 3.5 mph - N/A   Clear
6:42 AM 64.4 °F 60.8 °F 88% 29.95 in 3.0 mi Calm Calm - N/A   Mostly Cloudy
6:53 AM 64.9 °F 61.0 °F 87% 29.95 in 4.0 mi Calm Calm - N/A   Mostly Cloudy
7:06 AM 64.4 °F 62.6 °F 94% 29.96 in 4.0 mi Calm Calm - N/A   Mostly Cloudy
7:41 AM 66.2 °F 62.6 °F 88% 29.97 in 4.0 mi WSW 3.5 mph - N/A   Scattered Clouds
7:53 AM 66.9 °F 63.0 °F 87% 29.96 in 5.0 mi West 3.5 mph - N/A   Partly Cloudy
8:12 AM 66.2 °F 62.6 °F 88% 29.97 in 6.0 mi WNW 4.6 mph - N/A   Mostly Cloudy
8:28 AM 68.0 °F 62.6 °F 83% 29.98 in 8.0 mi West 3.5 mph - N/A   Overcast
8:37 AM 66.2 °F 62.6 °F 88% 29.98 in 7.0 mi West 4.6 mph - N/A   Mostly Cloudy
8:53 AM 68.0 °F 63.0 °F 84% 29.96 in 8.0 mi Calm Calm - N/A   Mostly Cloudy
8:59 AM 68.0 °F 62.6 °F 83% 29.98 in 9.0 mi NNW 4.6 mph - N/A   Mostly Cloudy
9:07 AM 69.8 °F 62.6 °F 78% 29.98 in 10.0 mi WNW 4.6 mph - N/A   Mostly Cloudy
9:12 AM 71.6 °F 62.6 °F 73% 29.98 in 10.0 mi Variable 4.6 mph - N/A   Mostly Cloudy
9:27 AM 71.6 °F 62.6 °F 73% 29.98 in 10.0 mi North 5.8 mph - N/A   Scattered Clouds
9:53 AM 71.1 °F 59.0 °F 66% 29.96 in 10.0 mi NW 8.1 mph - N/A   Mostly Cloudy
10:14 AM 71.6 °F 59.0 °F 64% 29.98 in 10.0 mi NNW 6.9 mph - N/A   Scattered Clouds
10:53 AM 73.9 °F 57.9 °F 57% 29.97 in 10.0 mi North 4.6 mph - N/A   Partly Cloudy
11:53 AM 73.9 °F 59.0 °F 59% 29.98 in 10.0 mi North 6.9 mph - N/A   Scattered Clouds
12:53 PM 73.9 °F 55.0 °F 52% 29.99 in 10.0 mi North 6.9 mph - N/A   Partly Cloudy
1:53 PM 73.0 °F 53.1 °F 49% 29.99 in 10.0 mi Variable 4.6 mph - N/A   Partly Cloudy
2:53 PM 73.9 °F 52.0 °F 46% 30.00 in 10.0 mi NW 6.9 mph - N/A   Clear
3:53 PM 73.9 °F 51.1 °F 45% 30.00 in 10.0 mi WNW 11.5 mph 18.4 mph N/A   Clear
4:53 PM 73.9 °F 52.0 °F 46% 29.98 in 10.0 mi North 9.2 mph - N/A   Partly Cloudy
5:53 PM 73.0 °F 52.0 °F 48% 29.99 in 10.0 mi NW 8.1 mph - N/A   Clear
6:53 PM 72.0 °F 51.1 °F 48% 30.00 in 10.0 mi NNW 6.9 mph - N/A   Clear
7:53 PM 69.1 °F 54.0 °F 58% 30.00 in 10.0 mi Calm Calm - N/A   Clear
8:53 PM 63.0 °F 57.0 °F 81% 30.00 in 10.0 mi Calm Calm - N/A   Clear
9:53 PM 61.0 °F 55.9 °F 83% 30.01 in 10.0 mi Calm Calm - N/A   Clear
10:53 PM 59.0 °F 55.9 °F 90% 30.01 in 10.0 mi Calm Calm - N/A   Clear
11:53 PM 57.9 °F 55.0 °F 90% 30.01 in 10.0 mi Calm Calm - N/A   Clear